Tracking 31032 objects as of 13-Jul-2025
HD Live streaming from Space Station
objects crossing your sky now

CZ-6A DEB

Track CZ-6A DEB now!
10-day predictions


NORAD ID: 54295
Int'l Code: 2022-151AN
Perigee: 701.5 km
Apogee: 915.4 km
Inclination: 98.7 °
Period: 100.9 minutes
Semi major axis: 7179 km
RCS: Unknown
Launch date: November 11, 2022
Source: People's Republic of China (PRC)
Launch site: Taiyaun Space Center, China (TSC)

Note: This is SATELLITE DEBRIS
Your satellite tracking list
Your tracking list is empty




NASA's NSSDC Master Catalog

Two Line Element Set (TLE):
1 54295U 22151AN  25194.45436768  .00003353  00000-0  12380-2 0  9990
2 54295  98.7413 203.0338 0148915  70.4114 291.3075 14.27140093137675
Source of the keplerian elements: AFSPC